TRA5B LEGE-EHRD

Flight info

Callsign TRA5B
Flight time 1h 42m
Altitude 36000
Route GEANT DCT ROCAN DCT TOU DCT ADABI DCT BOKNO DCT DEVRO DCT VANAD DCT PIWIZ DCT VADOM DCT BAMES DCT ARSAF DCT EGOZE DCT CMB DCT VEKIN DCT ADUTO N873 FERDI Y18 DENUT
Aircraft B738/M-SDE2E3FGHIRWXY/LB1

Departure

Time 2026-05-07 16:12
Airport Girona-Costa Brava Airport (LEGE)

Arrival

Time 2026-05-07 17:54
Airport Rotterdam The Hague Airport (EHRD)
Time Latitude Longitude Altitude Speed Heading
2026-05-07 16:00 41.89959 2.76347 430 ft 0 kts 196°
2026-05-07 16:07 41.89956 2.76346 430 ft 1 kts 196°
2026-05-07 16:07 41.89936 2.76338 426 ft 5 kts 196°
2026-05-07 16:08 41.89903 2.76284 427 ft 11 kts 279°
2026-05-07 16:08 41.89970 2.76238 427 ft 15 kts 15°
2026-05-07 16:08 41.90077 2.76279 434 ft 18 kts 16°
2026-05-07 16:08 41.90204 2.76327 438 ft 20 kts 15°
2026-05-07 16:09 41.90349 2.76382 439 ft 23 kts 15°
2026-05-07 16:09 41.90512 2.76444 448 ft 26 kts 15°
2026-05-07 16:09 41.90689 2.76511 454 ft 28 kts 15°
2026-05-07 16:09 41.90877 2.76583 460 ft 28 kts 15°
2026-05-07 16:10 41.91057 2.76651 466 ft 26 kts 16°
2026-05-07 16:10 41.91225 2.76713 470 ft 24 kts 15°
2026-05-07 16:10 41.91383 2.76767 477 ft 23 kts 355°
2026-05-07 16:10 41.91516 2.76677 477 ft 18 kts 320°
2026-05-07 16:11 41.91518 2.76593 477 ft 7 kts 209°
2026-05-07 16:11 41.91498 2.76584 479 ft 1 kts 195°
2026-05-07 16:11 41.91454 2.76568 478 ft 25 kts 195°
2026-05-07 16:11 41.91020 2.76404 460 ft 102 kts 196°
2026-05-07 16:12 41.90118 2.76066 448 ft 163 kts 192°
2026-05-07 16:12 41.88988 2.75631 1132 ft 168 kts 195°
2026-05-07 16:12 41.87867 2.75204 1988 ft 171 kts 195°
2026-05-07 16:12 41.86681 2.74737 2665 ft 189 kts 194°
2026-05-07 16:13 41.85348 2.74253 3234 ft 206 kts 194°
2026-05-07 16:13 41.83899 2.73724 3740 ft 221 kts 195°
2026-05-07 16:13 41.82501 2.72838 4448 ft 227 kts 220°
2026-05-07 16:13 41.81580 2.71094 4996 ft 243 kts 251°
2026-05-07 16:14 41.81525 2.68847 5874 ft 242 kts 287°
2026-05-07 16:14 41.82363 2.66980 6844 ft 234 kts 319°
2026-05-07 16:14 41.83790 2.66016 7858 ft 229 kts 344°
2026-05-07 16:14 41.85372 2.65569 8605 ft 235 kts 349°
2026-05-07 16:15 41.86977 2.65220 9376 ft 238 kts 350°
2026-05-07 16:15 41.88626 2.64871 10150 ft 241 kts 350°
2026-05-07 16:15 41.90302 2.64510 10849 ft 245 kts 349°
2026-05-07 16:15 41.92004 2.64133 11552 ft 249 kts 349°
2026-05-07 16:16 41.93720 2.63747 12268 ft 252 kts 348°
2026-05-07 16:16 41.95448 2.63352 12964 ft 256 kts 348°
2026-05-07 16:16 41.97224 2.62942 13696 ft 260 kts 348°
2026-05-07 16:16 41.99010 2.62529 14343 ft 263 kts 348°
2026-05-07 16:17 42.00827 2.62106 15008 ft 266 kts 347°
2026-05-07 16:17 42.02660 2.61677 15676 ft 268 kts 348°
2026-05-07 16:17 42.04515 2.61243 16342 ft 271 kts 347°
2026-05-07 16:17 42.06385 2.60806 16992 ft 274 kts 347°
2026-05-07 16:18 42.08246 2.60307 17632 ft 276 kts 337°
2026-05-07 16:18 42.09918 2.58994 18057 ft 283 kts 318°
2026-05-07 16:18 42.11471 2.57257 18219 ft 304 kts 317°
2026-05-07 16:18 42.13149 2.55333 18374 ft 325 kts 317°
2026-05-07 16:19 42.14909 2.53325 18522 ft 345 kts 317°
2026-05-07 16:19 42.16815 2.51175 18654 ft 365 kts 317°
2026-05-07 16:19 42.18815 2.48933 18789 ft 383 kts 318°
2026-05-07 16:19 42.20902 2.46598 19124 ft 393 kts 318°
2026-05-07 16:20 42.23005 2.44257 19714 ft 396 kts 318°
2026-05-07 16:20 42.25150 2.41874 20360 ft 397 kts 318°
2026-05-07 16:20 42.27275 2.39511 20913 ft 401 kts 318°
2026-05-07 16:20 42.29445 2.37095 21448 ft 405 kts 317°
2026-05-07 16:21 42.31631 2.34658 21987 ft 408 kts 317°
2026-05-07 16:21 42.33809 2.32226 22519 ft 411 kts 317°
2026-05-07 16:21 42.36030 2.29744 23073 ft 415 kts 317°
2026-05-07 16:21 42.38267 2.27241 23555 ft 418 kts 317°
2026-05-07 16:22 42.40523 2.24716 23998 ft 421 kts 317°
2026-05-07 16:22 42.42763 2.22205 24478 ft 422 kts 317°
2026-05-07 16:22 42.45042 2.19653 24926 ft 425 kts 317°
2026-05-07 16:22 42.47339 2.17087 25339 ft 428 kts 317°
2026-05-07 16:23 42.49617 2.14543 25766 ft 430 kts 316°
2026-05-07 16:23 42.51939 2.11947 26234 ft 432 kts 316°
2026-05-07 16:23 42.54272 2.09336 26649 ft 435 kts 316°
2026-05-07 16:23 42.56595 2.06733 27016 ft 437 kts 316°
2026-05-07 16:24 42.58932 2.04111 27377 ft 440 kts 316°
2026-05-07 16:24 42.61305 2.01447 27774 ft 441 kts 316°
2026-05-07 16:24 42.63678 1.98780 28173 ft 443 kts 315°
2026-05-07 16:24 42.66040 1.96142 28522 ft 447 kts 317°
2026-05-07 16:25 42.68662 1.93750 28878 ft 455 kts 326°
2026-05-07 16:25 42.71511 1.91871 29232 ft 460 kts 330°
2026-05-07 16:25 42.74452 1.90071 29547 ft 464 kts 330°
2026-05-07 16:25 42.77386 1.88304 29881 ft 466 kts 330°
2026-05-07 16:26 42.79358 1.87115 30115 ft 466 kts 330°
2026-05-07 16:26 42.82318 1.85317 30553 ft 464 kts 330°
2026-05-07 16:26 42.85269 1.83502 30981 ft 462 kts 330°
2026-05-07 16:26 42.88182 1.81698 31344 ft 462 kts 330°
2026-05-07 16:27 42.91080 1.79890 31698 ft 461 kts 330°
2026-05-07 16:27 42.94008 1.78058 32092 ft 460 kts 330°
2026-05-07 16:27 42.96918 1.76234 32499 ft 458 kts 329°
2026-05-07 16:27 42.99776 1.74438 32808 ft 458 kts 329°
2026-05-07 16:28 43.02688 1.72607 33146 ft 458 kts 329°
2026-05-07 16:28 43.05568 1.70795 33490 ft 457 kts 329°
2026-05-07 16:28 43.08442 1.68986 33836 ft 456 kts 329°
2026-05-07 16:28 43.11332 1.67165 34148 ft 455 kts 329°
2026-05-07 16:29 43.14221 1.65343 34405 ft 455 kts 329°
2026-05-07 16:29 43.17066 1.63546 34639 ft 455 kts 330°
2026-05-07 16:29 43.19957 1.61718 34901 ft 455 kts 330°
2026-05-07 16:29 43.22853 1.59886 35128 ft 455 kts 330°
2026-05-07 16:30 43.25696 1.58084 35370 ft 456 kts 330°
2026-05-07 16:30 43.28593 1.56248 35629 ft 455 kts 330°
2026-05-07 16:30 43.31434 1.54445 35869 ft 455 kts 330°
2026-05-07 16:31 43.37236 1.50754 35941 ft 460 kts 330°
2026-05-07 16:31 43.43021 1.47071 35934 ft 456 kts 330°
2026-05-07 16:32 43.48747 1.43418 35939 ft 452 kts 330°
2026-05-07 16:32 43.54441 1.39773 35941 ft 451 kts 330°
2026-05-07 16:33 43.60117 1.36133 35944 ft 449 kts 330°
2026-05-07 16:33 43.65752 1.32514 35941 ft 449 kts 331°
2026-05-07 16:34 43.71710 1.29866 35954 ft 456 kts 345°
2026-05-07 16:34 43.77955 1.28305 35947 ft 458 kts 346°
2026-05-07 16:35 43.84260 1.26785 35949 ft 460 kts 346°
2026-05-07 16:35 43.90561 1.25203 35943 ft 461 kts 346°
2026-05-07 16:36 43.96863 1.23578 35949 ft 462 kts 346°
2026-05-07 16:36 44.03155 1.21940 35939 ft 460 kts 346°
2026-05-07 16:37 44.09432 1.20305 35939 ft 457 kts 346°
2026-05-07 16:37 44.15651 1.18681 35944 ft 454 kts 346°
2026-05-07 16:38 44.21835 1.17064 35946 ft 453 kts 346°
2026-05-07 16:38 44.28031 1.15439 35947 ft 453 kts 346°
2026-05-07 16:39 44.34206 1.13816 35949 ft 453 kts 346°
2026-05-07 16:39 44.40412 1.12182 35948 ft 455 kts 346°
2026-05-07 16:40 44.46659 1.10534 35953 ft 456 kts 346°
2026-05-07 16:40 44.52902 1.08883 35945 ft 457 kts 346°
2026-05-07 16:41 44.59136 1.07232 35955 ft 458 kts 346°
2026-05-07 16:41 44.65422 1.05563 35946 ft 459 kts 346°
2026-05-07 16:42 44.71682 1.03898 35952 ft 459 kts 346°
2026-05-07 16:42 44.77929 1.02232 35955 ft 458 kts 347°
2026-05-07 16:43 44.84187 1.00559 35946 ft 457 kts 347°
2026-05-07 16:43 44.90417 0.98890 35944 ft 456 kts 347°
2026-05-07 16:44 44.96646 0.97218 35948 ft 455 kts 347°
2026-05-07 16:44 45.02866 0.95545 35939 ft 455 kts 347°
2026-05-07 16:45 45.09076 0.93870 35946 ft 454 kts 347°
2026-05-07 16:45 45.15251 0.92201 35939 ft 453 kts 347°
2026-05-07 16:46 45.21457 0.90520 35947 ft 452 kts 347°
2026-05-07 16:46 45.27635 0.88843 35941 ft 452 kts 347°
2026-05-07 16:47 45.33769 0.87174 35952 ft 451 kts 347°
2026-05-07 16:47 45.39952 0.85488 35940 ft 451 kts 347°
2026-05-07 16:48 45.46103 0.83808 35955 ft 451 kts 347°
2026-05-07 16:48 45.52250 0.82124 35948 ft 451 kts 347°
2026-05-07 16:49 45.58436 0.80426 35951 ft 451 kts 347°
2026-05-07 16:49 45.64603 0.78729 35954 ft 452 kts 347°
2026-05-07 16:50 45.70746 0.77036 35963 ft 452 kts 347°
2026-05-07 16:50 45.76915 0.75331 35961 ft 452 kts 347°
2026-05-07 16:51 45.83073 0.73626 35961 ft 452 kts 347°
2026-05-07 16:51 45.89268 0.71906 35964 ft 452 kts 347°
2026-05-07 16:52 45.95424 0.70193 35969 ft 451 kts 347°
2026-05-07 16:52 46.01578 0.68477 35970 ft 451 kts 347°
2026-05-07 16:53 46.07736 0.66756 35966 ft 451 kts 347°
2026-05-07 16:53 46.13878 0.65036 35966 ft 450 kts 347°
2026-05-07 16:54 46.20015 0.63313 35972 ft 449 kts 347°
2026-05-07 16:54 46.26158 0.61584 35970 ft 449 kts 347°
2026-05-07 16:55 46.32276 0.59859 35972 ft 448 kts 347°
2026-05-07 16:55 46.38388 0.58131 35969 ft 448 kts 347°
2026-05-07 16:56 46.44461 0.56409 35979 ft 447 kts 347°
2026-05-07 16:56 46.53633 0.53876 35970 ft 447 kts 352°
2026-05-07 16:57 46.59824 0.54148 35967 ft 450 kts 10°
2026-05-07 16:57 46.65957 0.56191 35975 ft 451 kts 12°
2026-05-07 16:58 46.72054 0.58315 35980 ft 451 kts 12°
2026-05-07 16:58 46.78167 0.60375 35983 ft 451 kts 11°
2026-05-07 16:59 46.84290 0.62404 35992 ft 452 kts 11°
2026-05-07 16:59 46.90408 0.64433 35987 ft 452 kts 11°
2026-05-07 17:00 46.96546 0.66476 35984 ft 452 kts 11°
2026-05-07 17:00 47.02677 0.68522 35991 ft 452 kts 12°
2026-05-07 17:01 47.08893 0.69852 35993 ft 450 kts
2026-05-07 17:01 47.15184 0.70399 35983 ft 450 kts
2026-05-07 17:02 47.21437 0.70956 35997 ft 450 kts
2026-05-07 17:02 47.27643 0.71584 35991 ft 449 kts
2026-05-07 17:03 47.33880 0.72242 36001 ft 449 kts
2026-05-07 17:03 47.40094 0.72898 35997 ft 448 kts
2026-05-07 17:04 47.46319 0.73554 35993 ft 448 kts
2026-05-07 17:04 47.52439 0.75090 35996 ft 449 kts 17°
2026-05-07 17:05 47.58361 0.78064 35988 ft 450 kts 18°
2026-05-07 17:05 47.64303 0.81095 35997 ft 450 kts 18°
2026-05-07 17:06 47.70238 0.84045 35998 ft 451 kts 17°
2026-05-07 17:06 47.76194 0.86982 35999 ft 452 kts 17°
2026-05-07 17:07 47.82150 0.89929 36002 ft 453 kts 17°
2026-05-07 17:07 47.88130 0.92919 36010 ft 453 kts 17°
2026-05-07 17:08 47.94137 0.95962 36008 ft 454 kts 18°
2026-05-07 17:08 48.00124 0.99002 36010 ft 454 kts 17°
2026-05-07 17:09 48.06083 1.02031 36008 ft 454 kts 18°
2026-05-07 17:09 48.12085 1.05088 36012 ft 455 kts 18°
2026-05-07 17:10 48.18084 1.08151 36013 ft 454 kts 18°
2026-05-07 17:10 48.24049 1.11199 36022 ft 454 kts 18°
2026-05-07 17:11 48.30058 1.14259 36010 ft 455 kts 17°
2026-05-07 17:11 48.36036 1.17309 36014 ft 454 kts 17°
2026-05-07 17:12 48.42022 1.20374 36023 ft 454 kts 18°
2026-05-07 17:12 48.47988 1.23437 36014 ft 454 kts 18°
2026-05-07 17:13 48.53962 1.26511 36031 ft 454 kts 18°
2026-05-07 17:13 48.59936 1.29553 36036 ft 454 kts 17°
2026-05-07 17:14 48.65931 1.32562 36026 ft 454 kts 17°
2026-05-07 17:14 48.71960 1.35601 36025 ft 455 kts 17°
2026-05-07 17:15 48.77932 1.38626 36034 ft 455 kts 17°
2026-05-07 17:15 48.83937 1.41679 36027 ft 455 kts 17°
2026-05-07 17:16 48.89968 1.44751 36020 ft 455 kts 17°
2026-05-07 17:16 48.95865 1.48239 36025 ft 457 kts 28°
2026-05-07 17:17 49.00902 1.54108 36016 ft 459 kts 46°
2026-05-07 17:17 49.05123 1.61364 36035 ft 460 kts 49°
2026-05-07 17:18 49.09320 1.68738 35926 ft 463 kts 48°
2026-05-07 17:18 49.13600 1.76156 36030 ft 471 kts 48°
2026-05-07 17:19 49.17987 1.83713 36026 ft 475 kts 47°
2026-05-07 17:19 49.22355 1.91253 36027 ft 477 kts 48°
2026-05-07 17:20 49.26758 1.98880 36021 ft 477 kts 48°
2026-05-07 17:20 49.31141 2.06497 36044 ft 475 kts 48°
2026-05-07 17:21 49.35489 2.14073 36046 ft 473 kts 48°
2026-05-07 17:21 49.39812 2.21632 36048 ft 471 kts 48°
2026-05-07 17:22 49.43396 2.27916 36048 ft 469 kts 48°
2026-05-07 17:22 49.47672 2.35433 36045 ft 467 kts 48°
2026-05-07 17:23 49.51931 2.42941 36042 ft 466 kts 48°
2026-05-07 17:23 49.56444 2.50053 36034 ft 463 kts 36°
2026-05-07 17:24 49.61821 2.55446 36039 ft 462 kts 30°
2026-05-07 17:24 49.67308 2.60617 36043 ft 463 kts 30°
2026-05-07 17:25 49.72787 2.65865 36044 ft 464 kts 30°
2026-05-07 17:25 49.78248 2.71178 36046 ft 465 kts 31°
2026-05-07 17:26 49.83744 2.76560 36049 ft 466 kts 31°
2026-05-07 17:26 49.89223 2.81937 36049 ft 467 kts 31°
2026-05-07 17:27 49.94712 2.87337 36049 ft 468 kts 31°
2026-05-07 17:27 50.00231 2.92780 36037 ft 467 kts 31°
2026-05-07 17:28 50.02912 2.95431 35835 ft 458 kts 31°
2026-05-07 17:28 50.05599 2.98091 35284 ft 456 kts 31°
2026-05-07 17:28 50.08294 3.00761 34634 ft 458 kts 31°
2026-05-07 17:28 50.10967 3.03412 33979 ft 460 kts 30°
2026-05-07 17:29 50.13668 3.06096 33212 ft 461 kts 31°
2026-05-07 17:29 50.16385 3.08799 32524 ft 461 kts 31°
2026-05-07 17:29 50.19096 3.11500 32056 ft 456 kts 31°
2026-05-07 17:29 50.21747 3.14145 31634 ft 450 kts 30°
2026-05-07 17:30 50.24461 3.16501 31155 ft 444 kts 22°
2026-05-07 17:30 50.27281 3.18474 30655 ft 441 kts 21°
2026-05-07 17:30 50.30079 3.20360 30188 ft 438 kts 21°
2026-05-07 17:30 50.32871 3.22249 29478 ft 437 kts 21°
2026-05-07 17:31 50.35662 3.24172 28887 ft 435 kts 22°
2026-05-07 17:31 50.38378 3.26071 28357 ft 431 kts 22°
2026-05-07 17:31 50.41095 3.27990 27884 ft 426 kts 23°
2026-05-07 17:31 50.43725 3.30006 27409 ft 422 kts 25°
2026-05-07 17:32 50.46323 3.32089 26935 ft 418 kts 25°
2026-05-07 17:32 50.48935 3.34176 26466 ft 414 kts 25°
2026-05-07 17:32 50.51481 3.36185 26000 ft 411 kts 24°
2026-05-07 17:32 50.54070 3.38078 25526 ft 407 kts 22°
2026-05-07 17:33 50.56658 3.39853 25078 ft 404 kts 21°
2026-05-07 17:33 50.59216 3.41572 24624 ft 401 kts 21°
2026-05-07 17:33 50.61781 3.43298 24172 ft 399 kts 21°
2026-05-07 17:33 50.64344 3.45036 23722 ft 397 kts 21°
2026-05-07 17:34 50.66852 3.46750 23194 ft 395 kts 22°
2026-05-07 17:34 50.69375 3.48485 22701 ft 392 kts 22°
2026-05-07 17:34 50.71871 3.50207 22241 ft 389 kts 22°
2026-05-07 17:34 50.74344 3.51918 21793 ft 385 kts 22°
2026-05-07 17:35 50.76762 3.53593 21350 ft 382 kts 22°
2026-05-07 17:35 50.79194 3.55279 20916 ft 379 kts 22°
2026-05-07 17:35 50.81617 3.56961 20479 ft 376 kts 22°
2026-05-07 17:35 50.84010 3.58623 20055 ft 373 kts 22°
2026-05-07 17:36 50.86353 3.60252 19634 ft 370 kts 22°
2026-05-07 17:36 50.88735 3.61910 19210 ft 368 kts 22°
2026-05-07 17:36 50.91101 3.63273 18785 ft 365 kts 13°
2026-05-07 17:36 50.93605 3.63966 18300 ft 362 kts
2026-05-07 17:37 50.96119 3.64161 17830 ft 360 kts
2026-05-07 17:37 50.98599 3.64282 17365 ft 357 kts
2026-05-07 17:37 51.01062 3.64396 16943 ft 354 kts
2026-05-07 17:37 51.03530 3.64523 16514 ft 352 kts
2026-05-07 17:38 51.05976 3.64664 16127 ft 349 kts
2026-05-07 17:38 51.08413 3.64813 16083 ft 350 kts
2026-05-07 17:38 51.10793 3.64965 16058 ft 339 kts
2026-05-07 17:38 51.13118 3.65117 16043 ft 324 kts
2026-05-07 17:39 51.15330 3.65262 16044 ft 311 kts
2026-05-07 17:39 51.17432 3.65399 16045 ft 298 kts
2026-05-07 17:39 51.19462 3.65532 16003 ft 286 kts
2026-05-07 17:39 51.21434 3.65661 15855 ft 280 kts
2026-05-07 17:40 51.23308 3.66332 15504 ft 277 kts 25°
2026-05-07 17:40 51.25013 3.67758 14956 ft 281 kts 28°
2026-05-07 17:40 51.26781 3.69329 13932 ft 301 kts 28°
2026-05-07 17:40 51.28671 3.71013 12790 ft 319 kts 28°
2026-05-07 17:41 51.30661 3.72769 11788 ft 331 kts 28°
2026-05-07 17:41 51.32667 3.74522 11090 ft 330 kts 27°
2026-05-07 17:41 51.34676 3.76263 10544 ft 324 kts 27°
2026-05-07 17:41 51.36605 3.77926 10403 ft 306 kts 27°
2026-05-07 17:42 51.38483 3.79540 9944 ft 301 kts 27°
2026-05-07 17:42 51.40301 3.81099 9486 ft 295 kts 27°
2026-05-07 17:42 51.42102 3.82642 9030 ft 291 kts 27°
2026-05-07 17:42 51.43854 3.84144 8588 ft 286 kts 27°
2026-05-07 17:43 51.45608 3.85647 8146 ft 282 kts 27°
2026-05-07 17:43 51.47311 3.87108 7876 ft 274 kts 28°
2026-05-07 17:43 51.48979 3.88539 7604 ft 269 kts 28°
2026-05-07 17:43 51.50608 3.89938 7366 ft 267 kts 28°
2026-05-07 17:44 51.52248 3.91347 7127 ft 269 kts 28°
2026-05-07 17:44 51.53911 3.92777 6886 ft 273 kts 28°
2026-05-07 17:44 51.55604 3.94235 6638 ft 273 kts 28°
2026-05-07 17:44 51.57268 3.95669 6388 ft 270 kts 29°
2026-05-07 17:45 51.58909 3.97084 6125 ft 268 kts 29°
2026-05-07 17:45 51.60541 3.98492 5857 ft 266 kts 29°
2026-05-07 17:45 51.62166 3.99896 5604 ft 264 kts 29°
2026-05-07 17:45 51.63801 4.01310 5350 ft 263 kts 29°
2026-05-07 17:46 51.65410 4.02702 5097 ft 262 kts 29°
2026-05-07 17:46 51.67005 4.04083 4835 ft 261 kts 29°
2026-05-07 17:46 51.68608 4.05473 4581 ft 260 kts 30°
2026-05-07 17:46 51.70203 4.06857 4316 ft 258 kts 29°
2026-05-07 17:47 51.71764 4.08212 4060 ft 256 kts 29°
2026-05-07 17:47 51.73322 4.09565 3807 ft 254 kts 29°
2026-05-07 17:47 51.74870 4.10912 3544 ft 252 kts 30°
2026-05-07 17:47 51.76408 4.12250 3291 ft 250 kts 30°
2026-05-07 17:48 51.77927 4.13571 3116 ft 244 kts 30°
2026-05-07 17:48 51.79387 4.14843 3023 ft 229 kts 30°
2026-05-07 17:48 51.80745 4.16026 2929 ft 213 kts 30°
2026-05-07 17:48 51.81995 4.17116 2827 ft 199 kts 30°
2026-05-07 17:49 51.83182 4.18152 2719 ft 188 kts 30°
2026-05-07 17:49 51.84302 4.19133 2628 ft 176 kts 30°
2026-05-07 17:49 51.85338 4.20037 2587 ft 164 kts 30°
2026-05-07 17:49 51.86239 4.21090 2563 ft 159 kts 53°
2026-05-07 17:50 51.86921 4.22528 2597 ft 167 kts 51°
2026-05-07 17:50 51.87655 4.24024 2614 ft 172 kts 55°
2026-05-07 17:50 51.88347 4.25637 2481 ft 175 kts 57°
2026-05-07 17:50 51.89002 4.27260 2283 ft 167 kts 57°
2026-05-07 17:51 51.89618 4.28800 2069 ft 162 kts 57°
2026-05-07 17:51 51.90224 4.30322 1848 ft 156 kts 58°
2026-05-07 17:51 51.90797 4.31762 1630 ft 149 kts 57°
2026-05-07 17:51 51.91354 4.33159 1466 ft 147 kts 56°
2026-05-07 17:52 51.91904 4.34539 1277 ft 141 kts 57°
2026-05-07 17:52 51.92412 4.35840 1134 ft 129 kts 57°
2026-05-07 17:52 51.92878 4.37016 896 ft 123 kts 54°
2026-05-07 17:52 51.93353 4.38186 736 ft 128 kts 55°
2026-05-07 17:53 51.93837 4.39409 587 ft 130 kts 54°
2026-05-07 17:53 51.94336 4.40645 412 ft 130 kts 54°
2026-05-07 17:53 51.94824 4.41871 196 ft 132 kts 54°
2026-05-07 17:53 51.95316 4.43100 18 ft 132 kts 54°
2026-05-07 17:54 51.95767 4.44225 -6 ft 98 kts 56°
2026-05-07 17:54 51.96041 4.44903 -6 ft 44 kts 57°
2026-05-07 17:54 51.96156 4.45245 -6 ft 26 kts 92°
2026-05-07 17:54 51.96059 4.45401 -6 ft 19 kts 197°
2026-05-07 17:55 51.95980 4.45242 -6 ft 18 kts 236°
2026-05-07 17:55 51.95914 4.45078 -6 ft 17 kts 238°
2026-05-07 17:55 51.95848 4.44911 -6 ft 18 kts 237°
2026-05-07 17:55 51.95768 4.44714 -6 ft 24 kts 237°
2026-05-07 17:56 51.95670 4.44470 -6 ft 27 kts 237°
2026-05-07 17:56 51.95572 4.44223 -6 ft 25 kts 237°
2026-05-07 17:56 51.95479 4.43992 -6 ft 23 kts 237°
2026-05-07 17:56 51.95394 4.43777 -6 ft 23 kts 237°
2026-05-07 17:57 51.95309 4.43565 -6 ft 22 kts 236°
2026-05-07 17:57 51.95273 4.43478 -6 ft 8 kts 236°
2026-05-07 17:57 51.95202 4.43478 -6 ft 12 kts 147°
2026-05-07 17:57 51.95122 4.43561 -7 ft 11 kts 147°
2026-05-07 17:58 51.95076 4.43536 -7 ft 4 kts 250°
2026-05-07 17:58 51.95092 4.43507 -7 ft 4 kts 324°
2026-05-07 17:58 51.95111 4.43487 -7 ft 2 kts 326°
2026-05-07 17:58 51.95112 4.43485 -7 ft 0 kts 326°